Regional Weather Roundup
Issued by NWS

Home | Current Version | Previous Version | Graphics & Text | Print | Product List | Glossary On
Versions: 1 2 3 4 5 6 7 8 9 10 11 12 13 14 15 16 17 18 19 20 21 22 23 24 25 26 27 28 29 30 31 32 33 34 35 36 37 38 39 40 41 42 43 44 45 46 47 48 49 50
000
ASUS45 KTFX 220504
RWRMT
MONTANA HOURLY WEATHER ROUNDUP
NATIONAL WEATHER SERVICE GREAT FALLS MT
1004 PM MST SUN DEC 21 2014

NOTE: "FAIR" INDICATES FEW OR NO CLOUDS BELOW 12000 FEET WITH NO
SIGNIFICANT WEATHER AND/OR OBSTRUCTIONS TO VISIBILITY.

* THESE STATIONS ARE NOT UNDER NWS QUALITY CONTROL. THEY DO NOT
   REPORT WEATHER SUCH AS PRECIPITATION OR FOG.

MTZ001>007-043-220600-
WEST OF THE DIVIDE
CITY           SKY/WX    TMP DP  RH WIND       PRES   REMARKS
KALISPELL      MOCLDY    36  28  73 SE8       29.81R WCI  30
MISSOULA       CLOUDY    39  28  65 NW12      29.87R WCI  32
BUTTE          CLOUDY    32  23  69 W5        29.84R WCI  27
MULLAN PASS    LGT SNOW  28  27  96 W13G23    29.84S WCI  17
* ESSEX        N/A       33  30  89 NW4        N/A
* LINCOLN      N/A       33  25  72 S3G10      N/A
* LOOKOUT PASS N/A       36  28  73 E6G14      N/A   WCI  31
* POLSON       N/A       36  26  67 SE2G8      N/A
* RONAN APT    CLOUDY    37  30  76 N/A        N/A
* SEELEY LAKE  N/A       36  25  64 N5G10      N/A   WCI  32
* THOMP F APT  CLOUDY    27  20  75 NW4G14     N/A
* YAAK HILL    N/A       35  28  76 NE2        N/A
$$

MTZ008-052>055-220600-
SOUTHWEST MONTANA
CITY           SKY/WX    TMP DP  RH WIND       PRES   REMARKS
BOZEMAN        MOCLDY    34  25  70 CALM      29.81S
DILLON         CLOUDY    34  25  70 W22       29.85S WCI  22
* W YELLOWSTON CLOUDY    27  24  88 SW3        N/A
* THREE FORKS  MOCLDY    37  32  82 N/A        N/A
* BOULDER HILL N/A       33  14  45 W9G16      N/A   WCI  25
* MONIDA PASS  N/A       27  18  69 NW20G26    N/A   WCI  13
* RAYNOLDS PAS N/A       26  26 100 N3         N/A
* WHITEHALL    N/A       33  25  72 SE2G7      N/A
* WISE RIVER   N/A       30  22  72 SW4        N/A
$$

MTZ009>010-012-014-046-048-049-054-220600-
EAST SLOPES AND CENTRAL MONTANA
CITY           SKY/WX    TMP DP  RH WIND       PRES   REMARKS
CUT BANK       CLEAR     34  25  70 W18       29.66R WCI  23
GREAT FALLS    PTCLDY    34  23  64 W15       29.69R WCI  24
HELENA         PTCLDY    41  23  49 W31G45    29.72S
* DEARBORN     N/A       30  23  75 S2         N/A
* EAST GLACIER N/A       33  20  59 NW18G34    N/A   WCI  22
* MONARCH      N/A       32  14  47 W23G32     N/A   WCI  19
* PENDROY      N/A       33  21  61 NW13G18    N/A   WCI  24
* ROGERS PASS  N/A       31  19  61 NW3G9      N/A
* SWEET GRASS  N/A       33  22  64 NW14       N/A   WCI  23
$$

MTZ011-013-016-021-035-040-045-047-050-051-220600-
NORTH CENTRAL MONTANA
CITY           SKY/WX    TMP DP  RH WIND       PRES   REMARKS
HAVRE          MOCLDY    34  28  79 W13       29.63R WCI  25
LEWISTOWN      CLOUDY    39  23  53 NW29G39   29.66R WCI  27
* N BAR RANCH  CLOUDY    36  23  59 NW18G33   29.63R WCI  26
* CHESTER      N/A       35  27  73 NW8G13     N/A   WCI  28
* DENTON       N/A       39  23  53 W22G28     N/A   WCI  29
* GEYSER       N/A       37  19  48 W20G28     N/A   WCI  27
* JUDITH GAP   N/A       36  18  48 NW20G30    N/A   WCI  25
* LOMA         N/A       36  25  64 SW8        N/A   WCI  30
$$

MTZ017>020-022>027-061-062-220600-
NORTHEAST MONTANA
CITY           SKY/WX    TMP DP  RH WIND       PRES   REMARKS
GLASGOW        LGT SNOW  34  30  85 NW20      29.46R WCI  23
GLENDIVE       CLOUDY    37  32  82 W26G33    29.43R WCI  25
JORDAN         PTCLDY    37  30  76 W13       29.51R WCI  29
SIDNEY         CLOUDY    37  34  89 W10       29.41R WCI  30
WOLF POINT     CLOUDY    37  34  89 W17       29.43R WCI  27
* BEAVER HILL  N/A       37  34  89 W24G33     N/A   WCI  26
* CIRCLE       N/A       37  34  89 W11G21     N/A   WCI  29
* LINDSAY DVD  N/A       34  33  96 NW25G32    N/A   WCI  21
* SACO         N/A       36  32  85 W17G23     N/A   WCI  26
$$

MTZ028>042-056>058-220600-
SOUTHCENTRAL AND SOUTHEAST MONTANA
CITY           SKY/WX    TMP DP  RH WIND       PRES   REMARKS
BAKER          LGT RAIN  37 N/A N/A W17       29.45R WCI  27
BILLINGS       MOCLDY    41  19  41 W20       29.66R
LIVINGSTON     PTCLDY    36  23  59 W20       29.76R WCI  25
MILES CITY     MOCLDY    39  32  76 W21G29    29.52R WCI  29
* LAUREL APT   PTCLDY    41  19  41 W17G31     N/A
* ROUNDUP APT  CLOUDY    39  23  53 N/A        N/A
* ALZADA       N/A       36  34  92 W17        N/A   WCI  26
* HYSHAM       N/A       40  25  55 W17G27     N/A   WCI  31
* LAME DEER    N/A       33  32  96 W16        N/A   WCI  23
* REED POINT   N/A       40  19  43 W18G24     N/A   WCI  31
* ROSCOE HILL  N/A       35   6  29 SW11G26    N/A   WCI  27
$$

REGIONAL REPORTS...DAKOTAS
CITY           SKY/WX    TMP DP  RH WIND       PRES   REMARKS
WILLISTON      CLOUDY    30  28  92 CALM      29.38R
DICKINSON      FOG       37  34  89 W9        29.37R WCI  30
BEACH          LGT RAIN  36  36 100 W17       29.42R WCI  26
CROSBY         PTCLDY    27  27 100 CALM      29.39R
WATFORD CITY   MOCLDY    34  34 100 SW5       29.37R WCI  29
BISMARCK       FOG       28  28 100 SE8       29.45S VSB 3    WCI  20
GRAND FORKS    CLOUDY    34  32  92 S12       29.56F WCI  25
FARGO          FOG       36  34  92 SE10      29.55F VSB 3    WCI  29
BUFFALO SD     CLOUDY    37  36  96 W20G29    29.39R WCI  27
RAPID CITY     CLOUDY    41  34  76 NW21G31   29.48R
$$

REGIONAL REPORTS...WYOMING/IDAHO/WASHINGTON
CITY           SKY/WX    TMP DP  RH WIND       PRES   REMARKS
GILLETTE       MOCLDY    34  28  79 NW15      29.60R WCI  24
SHERIDAN       LGT SNOW  36  28  73 NW25G33   29.67R WCI  24
CODY           PTCLDY    36  19  50 W13G20    29.69S WCI  27
YELLOWSTONE LA MOCLDY    23  18  81 W7G20     29.79S WCI  15
SALMON         MOCLDY    36  27  70 CALM      29.91F
MULLAN PASS    LGT SNOW  28  27  96 W13G23    29.84S WCI  17
SAND POINT     CLOUDY    41  34  76 SW6       29.88S
SPOKANE        CLOUDY    39  34  82 SW13      29.92R WCI  31
$$

REGIONAL REPORTS...ALBERTA
CITY           SKY/WX    TMP DP  RH WIND       PRES   REMARKS
EDMONTON       MOCLDY    30  28  92 NW6       29.57R WCI  24
$$

REGIONAL REPORTS...SASKATCHEWAN
CITY           SKY/WX    TMP DP  RH WIND       PRES   REMARKS
SWIFT CURRENT  LGT SNOW  21  21 100 W17       29.47R VSB 3    WCI   7

$$




USA.gov is the U.S. government's official web portal to all federal, state and local government web resources and services.